Starlink 31635

operational
NORAD ID: 59511 Int'l Des: 2024-073 Owner: SPXS Country: US Constellation: starlink
LEOCIRCULAR

About Starlink 31635

Description loading...

Live Position

Loading 3D Globe...

Upcoming Passes

Altitude History

Altitude vs Time

uPlot chart will show altitude changes over time

Two-Line Element Set

1 59511U 24073A 25258.60860338 .00003030 00000-0 11955-3 0 9993
2 59511 43.0026 226.4072 0000668 237.0638 123.0149 15.27589012 79400
Epoch: Sep 15, 2025 • Age: 19 hours

Current Status

Altitude 483.0 km
Velocity 7.63 km/s
Sub-Earth Point 22.58°N, 108.89°E
Launch Date Apr 17, 2024
Age 1.4 years
Type internet

Technical Details

Classification Payload
Mass 730.00 kg
Dry Mass 700.00 kg
Total Mass 730.00 kg
Length 0.30 m
Diameter 4.10 m
Span 29.00 m
Shape Box + pan
Manufacturer SPXS
Bus Type Starlink V2M
Phase Status In Orbit
Owner/State SPXS/US

Large Constellations

Loading constellations...